Location: Bergfeld
(52.0500°N, 11.7833°E)
Time: 07:39:26
(UTC+00:00)

Cosmos 2219 Rocket - Pass Details

Date: 17 February 2020
Orbit: 828 x 846 km, 71.0° (Epoch: 30 March)

Event Time Altitude Azimuth Distance (km) Brightness Sun altitude
Exits shadow 02:33:21 33° 23° (NNE) 1,397 3.6 -35.4°
Drops below altitude 10° 02:36:24 10° 29° (NNE) 2,480 5.2 -35.0°
Sets 02:38:52 0° 31° (NNE) 3,418 6.1 -34.7°
